Location: Fort Worth, Tx
(32.7431°N, 97.3695°W)
Time: 02:34:26
(UTC-05:00)

Tiros 1 - Visible Passes

Search period start: 13 November 2024 00:00
Search period end: 23 November 2024 00:00
Orbit: 622 x 654 km, 48.4° (Epoch: 12 November)

Date Brightness Start Highest point End Pass type
(mag) Time Alt. Az. Time Alt. Az. Time Alt. Az.
13 Nov 9.2 19:23:39 10° WNW 19:27:00 19° NNW 19:30:23 10° NNE visible
14 Nov 9.4 19:48:19 10° NW 19:50:42 14° NNW 19:52:53 11° NNE visible
15 Nov 9.5 20:12:49 10° NNW 20:14:31 12° N 20:14:54 12° N visible
16 Nov 9.4 18:52:05 10° NW 18:54:40 14° NNW 18:57:16 10° NNE visible
16 Nov 9.7 20:36:19 10° NNW 20:36:54 11° N 20:36:54 11° N visible
17 Nov 9.4 19:16:41 10° NNW 19:18:26 12° N 19:20:12 10° NNE visible
18 Nov 9.3 19:40:26 10° NNW 19:42:16 12° N 19:43:30 11° NNE visible
19 Nov 9.2 20:03:18 10° NNW 20:05:34 15° N 20:05:34 15° N visible
20 Nov 9.2 20:25:55 10° NNW 20:27:42 17° N 20:27:42 17° N visible
21 Nov 9.2 19:07:28 10° NNW 19:09:56 14° NNE 19:12:24 10° NE visible
21 Nov 9.3 20:48:34 10° NW 20:49:54 18° NNW 20:49:54 18° NNW visible
22 Nov 8.7 19:30:06 10° NNW 19:33:33 20° NNE 19:34:42 18° NE visible
22 Nov 9.7 21:11:23 10° NW 21:12:12 15° NW 21:12:12 15° NW visible
